Location: Unspecified
(0.0000°N, 0.0000°E)
Time: 23:09:49
(UTC+00:00)

N. Korean satellite - Pass Details

Date: 19 July 2019
Orbit: 456 x 508 km, 97.2° (Epoch: 21 July)

Event Time Altitude Azimuth Distance (km) Brightness Sun altitude
Rises 05:07:10 0° 30° (NNE) 2,594 11.1 -13.8°
Reaches altitude 10° 05:09:28 10° 42° (NE) 1,715 10.4 -13.3°
Maximum altitude 05:12:38 27° 101° (E) 1,002 8.8 -12.5°
Drops below altitude 10° 05:15:48 10° 160° (SSE) 1,719 9.3 -11.8°
Sets 05:18:06 0° 172° (S) 2,603 10.1 -11.3°
